KLM22 EGLL-EDDF

Flight info

Callsign KLM22
Flight time 1h 8m
Altitude 35000
Route BPK Q295 MATCH DCT REDFA DCT TACHA DCT NOLRU DCT DIXAT DIXAT1A
Aircraft B738/M-SDE2E3FGHIRWXY/LB1

Departure

Time 2026-05-05 17:58
Airport London Heathrow Airport (EGLL)

Arrival

Time 2026-05-05 19:06
Airport Frankfurt Main Airport (EDDF)
Time Latitude Longitude Altitude Speed Heading
2026-05-05 17:38 51.46995 -0.48601 86 ft 0 kts 269°
2026-05-05 17:49 51.46995 -0.48575 88 ft 2 kts 264°
2026-05-05 17:49 51.46999 -0.48550 86 ft 2 kts 236°
2026-05-05 17:50 51.47011 -0.48532 87 ft 2 kts 204°
2026-05-05 17:50 51.47014 -0.48530 87 ft 0 kts 197°
2026-05-05 17:55 51.47013 -0.48530 84 ft 2 kts 195°
2026-05-05 17:55 51.46979 -0.48506 89 ft 6 kts 142°
2026-05-05 17:55 51.46927 -0.48471 84 ft 6 kts 176°
2026-05-05 17:55 51.46898 -0.48470 86 ft 6 kts 178°
2026-05-05 17:56 51.46856 -0.48470 84 ft 6 kts 180°
2026-05-05 17:56 51.46815 -0.48471 86 ft 6 kts 180°
2026-05-05 17:56 51.46773 -0.48471 87 ft 6 kts 180°
2026-05-05 17:56 51.46725 -0.48470 84 ft 7 kts 179°
2026-05-05 17:57 51.46672 -0.48469 86 ft 8 kts 180°
2026-05-05 17:57 51.46621 -0.48469 88 ft 7 kts 181°
2026-05-05 17:57 51.46570 -0.48469 88 ft 8 kts 180°
2026-05-05 17:57 51.46500 -0.48449 88 ft 15 kts 143°
2026-05-05 17:58 51.46480 -0.48057 83 ft 78 kts 88°
2026-05-05 17:58 51.46490 -0.46685 87 ft 163 kts 89°
2026-05-05 17:58 51.46485 -0.44614 701 ft 194 kts 89°
2026-05-05 17:58 51.46474 -0.42526 2207 ft 183 kts 83°
2026-05-05 17:59 51.46902 -0.40514 2950 ft 202 kts 61°
2026-05-05 17:59 51.47744 -0.38528 3277 ft 226 kts 50°
2026-05-05 17:59 51.48752 -0.36573 4021 ft 233 kts 49°
2026-05-05 17:59 51.49862 -0.34675 4871 ft 234 kts 41°
2026-05-05 18:00 51.51091 -0.32896 5621 ft 244 kts 40°
2026-05-05 18:00 51.52416 -0.31009 5978 ft 260 kts 40°
2026-05-05 18:00 51.53791 -0.29055 5995 ft 264 kts 40°
2026-05-05 18:00 51.55169 -0.27096 6008 ft 264 kts 40°
2026-05-05 18:01 51.56546 -0.25138 6010 ft 264 kts 40°
2026-05-05 18:01 51.57926 -0.23177 6009 ft 265 kts 40°
2026-05-05 18:01 51.59310 -0.21215 6122 ft 268 kts 40°
2026-05-05 18:01 51.60715 -0.19224 6818 ft 270 kts 40°
2026-05-05 18:02 51.62126 -0.17214 7823 ft 272 kts 40°
2026-05-05 18:02 51.63536 -0.15195 8749 ft 277 kts 40°
2026-05-05 18:02 51.64986 -0.13108 9684 ft 282 kts 40°
2026-05-05 18:02 51.66461 -0.10973 10542 ft 287 kts 40°
2026-05-05 18:03 51.67959 -0.08806 11407 ft 291 kts 40°
2026-05-05 18:03 51.69378 -0.06375 11933 ft 312 kts 57°
2026-05-05 18:03 51.70095 -0.02911 12156 ft 341 kts 79°
2026-05-05 18:03 51.70566 0.00968 12316 ft 364 kts 75°
2026-05-05 18:04 51.71340 0.04885 12830 ft 376 kts 68°
2026-05-05 18:04 51.72390 0.08778 13589 ft 381 kts 63°
2026-05-05 18:04 51.73608 0.12591 14374 ft 383 kts 61°
2026-05-05 18:04 51.74906 0.16372 15119 ft 386 kts 60°
2026-05-05 18:05 51.76230 0.20176 15832 ft 390 kts 60°
2026-05-05 18:05 51.77541 0.24037 16545 ft 394 kts 63°
2026-05-05 18:05 51.78523 0.28207 17222 ft 399 kts 73°
2026-05-05 18:05 51.79222 0.32557 17928 ft 402 kts 75°
2026-05-05 18:06 51.79895 0.36925 18532 ft 407 kts 75°
2026-05-05 18:06 51.80354 0.39933 18894 ft 410 kts 75°
2026-05-05 18:06 51.81274 0.45914 19547 ft 418 kts 76°
2026-05-05 18:06 51.81988 0.50512 20039 ft 423 kts 76°
2026-05-05 18:07 51.82706 0.55120 20728 ft 423 kts 76°
2026-05-05 18:07 51.83433 0.59772 21195 ft 429 kts 76°
2026-05-05 18:07 51.84173 0.64493 21704 ft 433 kts 76°
2026-05-05 18:07 51.84915 0.69228 22255 ft 436 kts 76°
2026-05-05 18:08 51.85666 0.74028 22642 ft 443 kts 76°
2026-05-05 18:08 51.86420 0.78863 23256 ft 444 kts 76°
2026-05-05 18:08 51.87167 0.83668 23685 ft 448 kts 76°
2026-05-05 18:08 51.87927 0.88574 24106 ft 450 kts 76°
2026-05-05 18:09 51.88688 0.93499 24535 ft 452 kts 76°
2026-05-05 18:09 51.89451 0.98450 24945 ft 455 kts 77°
2026-05-05 18:09 51.90214 1.03424 25450 ft 454 kts 77°
2026-05-05 18:09 51.90976 1.08405 25815 ft 457 kts 77°
2026-05-05 18:10 51.91742 1.13427 26125 ft 461 kts 77°
2026-05-05 18:10 51.92513 1.18498 26467 ft 464 kts 77°
2026-05-05 18:10 51.93285 1.23591 26852 ft 466 kts 77°
2026-05-05 18:10 51.94058 1.28703 27201 ft 469 kts 77°
2026-05-05 18:11 51.94833 1.33850 27524 ft 471 kts 78°
2026-05-05 18:11 51.95611 1.39029 27833 ft 474 kts 78°
2026-05-05 18:11 51.96391 1.44243 28140 ft 477 kts 78°
2026-05-05 18:11 51.97162 1.49413 28439 ft 479 kts 78°
2026-05-05 18:12 51.97946 1.54683 28803 ft 480 kts 78°
2026-05-05 18:12 51.98725 1.59938 29275 ft 478 kts 78°
2026-05-05 18:12 51.99500 1.65177 29778 ft 476 kts 78°
2026-05-05 18:12 52.00267 1.70388 30201 ft 475 kts 79°
2026-05-05 18:13 52.01034 1.75614 30558 ft 475 kts 79°
2026-05-05 18:13 52.01796 1.80828 30928 ft 474 kts 79°
2026-05-05 18:13 52.02554 1.86029 31313 ft 473 kts 79°
2026-05-05 18:13 52.03308 1.91223 31719 ft 472 kts 79°
2026-05-05 18:14 52.04060 1.96417 31995 ft 473 kts 79°
2026-05-05 18:14 52.04810 2.01623 32337 ft 472 kts 79°
2026-05-05 18:14 52.05546 2.06741 32744 ft 470 kts 79°
2026-05-05 18:14 52.06287 2.11905 33180 ft 468 kts 79°
2026-05-05 18:15 52.07023 2.17056 33569 ft 467 kts 79°
2026-05-05 18:15 52.07754 2.22196 33932 ft 466 kts 80°
2026-05-05 18:15 52.08480 2.27315 34229 ft 465 kts 80°
2026-05-05 18:15 52.09206 2.32453 34473 ft 466 kts 79°
2026-05-05 18:16 52.09930 2.37594 34703 ft 467 kts 79°
2026-05-05 18:16 52.10654 2.42739 34941 ft 467 kts 79°
2026-05-05 18:16 52.11380 2.47923 34914 ft 471 kts 80°
2026-05-05 18:17 52.13175 2.58181 34936 ft 470 kts 75°
2026-05-05 18:17 52.15153 2.68244 34940 ft 468 kts 75°
2026-05-05 18:18 52.17104 2.78364 34942 ft 466 kts 76°
2026-05-05 18:18 52.19006 2.88478 34943 ft 465 kts 76°
2026-05-05 18:19 52.20873 2.98510 34929 ft 465 kts 76°
2026-05-05 18:19 52.22747 3.08608 34939 ft 465 kts 76°
2026-05-05 18:20 52.24532 3.18769 34920 ft 464 kts 84°
2026-05-05 18:20 52.24758 3.23984 34937 ft 458 kts 96°
2026-05-05 18:20 52.24362 3.29111 34929 ft 454 kts 107°
2026-05-05 18:21 52.22235 3.38710 34920 ft 451 kts 115°
2026-05-05 18:21 52.19879 3.48211 34906 ft 452 kts 115°
2026-05-05 18:22 52.17555 3.57699 34921 ft 453 kts 115°
2026-05-05 18:22 52.15238 3.67251 34920 ft 453 kts 115°
2026-05-05 18:23 52.12922 3.76808 34917 ft 453 kts 115°
2026-05-05 18:23 52.10617 3.86277 34913 ft 452 kts 115°
2026-05-05 18:24 52.08294 3.95778 34897 ft 452 kts 115°
2026-05-05 18:24 52.05965 4.05260 34911 ft 452 kts 115°
2026-05-05 18:25 52.03627 4.14731 34901 ft 452 kts 115°
2026-05-05 18:25 52.01281 4.24199 34887 ft 452 kts 115°
2026-05-05 18:26 51.98927 4.33654 34887 ft 452 kts 115°
2026-05-05 18:26 51.96567 4.43100 34886 ft 452 kts 115°
2026-05-05 18:27 51.94201 4.52526 34888 ft 451 kts 115°
2026-05-05 18:27 51.91832 4.61925 34883 ft 450 kts 115°
2026-05-05 18:28 51.88273 4.75969 34882 ft 449 kts 115°
2026-05-05 18:28 51.85908 4.85254 34888 ft 449 kts 115°
2026-05-05 18:29 51.83518 4.94601 34879 ft 448 kts 116°
2026-05-05 18:29 51.81126 5.03914 34882 ft 448 kts 116°
2026-05-05 18:30 51.78736 5.13178 34879 ft 448 kts 116°
2026-05-05 18:30 51.76331 5.22466 34880 ft 448 kts 116°
2026-05-05 18:31 51.73916 5.31755 34871 ft 448 kts 116°
2026-05-05 18:31 51.71490 5.41049 34864 ft 448 kts 116°
2026-05-05 18:32 51.69077 5.50251 34868 ft 448 kts 117°
2026-05-05 18:32 51.66642 5.59503 34874 ft 447 kts 116°
2026-05-05 18:33 51.64205 5.68728 34854 ft 446 kts 116°
2026-05-05 18:33 51.61784 5.77853 34857 ft 445 kts 117°
2026-05-05 18:34 51.59348 5.86996 34674 ft 444 kts 117°
2026-05-05 18:34 51.58134 5.91543 34424 ft 439 kts 117°
2026-05-05 18:34 51.56929 5.96049 34189 ft 437 kts 117°
2026-05-05 18:35 51.55623 6.00443 33943 ft 433 kts 123°
2026-05-05 18:35 51.54106 6.04618 33696 ft 432 kts 124°
2026-05-05 18:35 51.52555 6.08678 33424 ft 431 kts 125°
2026-05-05 18:35 51.50971 6.12772 33149 ft 431 kts 125°
2026-05-05 18:36 51.49393 6.16863 32882 ft 431 kts 124°
2026-05-05 18:36 51.47819 6.20977 32615 ft 432 kts 124°
2026-05-05 18:36 51.46250 6.25109 32341 ft 434 kts 124°
2026-05-05 18:36 51.44678 6.29264 32075 ft 435 kts 124°
2026-05-05 18:37 51.43126 6.33374 31812 ft 437 kts 124°
2026-05-05 18:37 51.41547 6.37556 31562 ft 439 kts 124°
2026-05-05 18:37 51.39960 6.41753 31310 ft 441 kts 124°
2026-05-05 18:37 51.38366 6.45964 31060 ft 442 kts 123°
2026-05-05 18:38 51.36766 6.50181 30810 ft 443 kts 123°
2026-05-05 18:38 51.35163 6.54402 30560 ft 444 kts 123°
2026-05-05 18:38 51.33575 6.58574 30311 ft 445 kts 123°
2026-05-05 18:38 51.31963 6.62801 30040 ft 446 kts 123°
2026-05-05 18:39 51.30343 6.67043 29785 ft 446 kts 123°
2026-05-05 18:39 51.28721 6.71282 29481 ft 447 kts 123°
2026-05-05 18:39 51.27095 6.75526 29206 ft 448 kts 123°
2026-05-05 18:39 51.25464 6.79774 28926 ft 449 kts 123°
2026-05-05 18:40 51.23832 6.84017 28654 ft 450 kts 123°
2026-05-05 18:40 51.22194 6.88273 28383 ft 451 kts 123°
2026-05-05 18:40 51.20550 6.92533 28113 ft 451 kts 123°
2026-05-05 18:40 51.18893 6.96821 27842 ft 452 kts 123°
2026-05-05 18:41 51.17242 7.01086 27579 ft 453 kts 123°
2026-05-05 18:41 51.15582 7.05370 27306 ft 454 kts 123°
2026-05-05 18:41 51.14481 7.08204 27140 ft 455 kts 123°
2026-05-05 18:41 51.12813 7.12496 26873 ft 456 kts 123°
2026-05-05 18:42 51.10598 7.18184 26519 ft 457 kts 123°
2026-05-05 18:42 51.08922 7.22485 26272 ft 457 kts 123°
2026-05-05 18:42 51.07785 7.25394 26108 ft 457 kts 123°
2026-05-05 18:42 51.06082 7.29664 25848 ft 457 kts 127°
2026-05-05 18:43 51.03939 7.33287 25545 ft 454 kts 142°
2026-05-05 18:43 51.01251 7.35877 25157 ft 451 kts 153°
2026-05-05 18:43 50.98440 7.38081 24693 ft 450 kts 154°
2026-05-05 18:43 50.95633 7.40288 24229 ft 447 kts 153°
2026-05-05 18:44 50.92865 7.42512 23776 ft 444 kts 153°
2026-05-05 18:44 50.90123 7.44774 23343 ft 442 kts 150°
2026-05-05 18:44 50.87631 7.47485 23079 ft 440 kts 140°
2026-05-05 18:44 50.85426 7.50856 22812 ft 441 kts 132°
2026-05-05 18:45 50.83550 7.54701 22528 ft 440 kts 127°
2026-05-05 18:45 50.81779 7.58643 22260 ft 439 kts 126°
2026-05-05 18:45 50.80015 7.62583 21988 ft 438 kts 126°
2026-05-05 18:45 50.78250 7.66505 21725 ft 437 kts 127°
2026-05-05 18:46 50.76488 7.70394 21460 ft 436 kts 127°
2026-05-05 18:46 50.74709 7.74295 21197 ft 435 kts 127°
2026-05-05 18:46 50.72960 7.78109 20945 ft 433 kts 127°
2026-05-05 18:46 50.71190 7.81957 20699 ft 432 kts 127°
2026-05-05 18:47 50.69424 7.85787 20441 ft 431 kts 127°
2026-05-05 18:47 50.67656 7.89615 20182 ft 430 kts 127°
2026-05-05 18:47 50.65894 7.93425 19939 ft 428 kts 127°
2026-05-05 18:47 50.64141 7.97209 19676 ft 427 kts 127°
2026-05-05 18:48 50.62390 8.00985 19471 ft 424 kts 127°
2026-05-05 18:48 50.60654 8.04723 19168 ft 424 kts 127°
2026-05-05 18:48 50.58917 8.08459 18691 ft 422 kts 127°
2026-05-05 18:48 50.57178 8.12193 18219 ft 421 kts 127°
2026-05-05 18:49 50.55472 8.15851 17708 ft 418 kts 127°
2026-05-05 18:49 50.53755 8.19529 17171 ft 415 kts 127°
2026-05-05 18:49 50.52047 8.23181 16652 ft 412 kts 128°
2026-05-05 18:49 50.50352 8.26801 16140 ft 410 kts 128°
2026-05-05 18:50 50.48662 8.30404 15632 ft 408 kts 128°
2026-05-05 18:50 50.46981 8.33984 15140 ft 406 kts 128°
2026-05-05 18:50 50.45306 8.37547 14645 ft 404 kts 128°
2026-05-05 18:50 50.43646 8.41072 14163 ft 400 kts 128°
2026-05-05 18:51 50.42016 8.44530 13699 ft 397 kts 128°
2026-05-05 18:51 50.40374 8.48009 13173 ft 394 kts 128°
2026-05-05 18:51 50.38748 8.51448 12652 ft 391 kts 128°
2026-05-05 18:51 50.37129 8.54868 12128 ft 389 kts 128°
2026-05-05 18:52 50.35520 8.58264 11623 ft 386 kts 128°
2026-05-05 18:52 50.33927 8.61622 11120 ft 383 kts 128°
2026-05-05 18:52 50.32363 8.64916 10613 ft 372 kts 128°
2026-05-05 18:52 50.30790 8.68221 10135 ft 381 kts 129°
2026-05-05 18:53 50.29221 8.71513 9652 ft 381 kts 129°
2026-05-05 18:53 50.27647 8.74816 9122 ft 376 kts 129°
2026-05-05 18:53 50.26085 8.78089 8600 ft 374 kts 129°
2026-05-05 18:53 50.24534 8.81334 8087 ft 371 kts 129°
2026-05-05 18:54 50.23081 8.84667 7559 ft 372 kts 118°
2026-05-05 18:54 50.22426 8.88568 7059 ft 375 kts 94°
2026-05-05 18:54 50.22545 8.92622 6605 ft 372 kts 89°
2026-05-05 18:54 50.22187 8.96568 6082 ft 367 kts 113°
2026-05-05 18:55 50.20808 8.99832 5575 ft 358 kts 139°
2026-05-05 18:55 50.18738 9.01765 5124 ft 351 kts 165°
2026-05-05 18:55 50.16341 9.01996 5060 ft 347 kts 192°
2026-05-05 18:55 50.14154 9.00548 5018 ft 342 kts 218°
2026-05-05 18:56 50.12637 8.97738 5019 ft 342 kts 243°
2026-05-05 18:56 50.12093 8.94153 5011 ft 344 kts 269°
2026-05-05 18:56 50.12423 8.90447 5018 ft 346 kts 280°
2026-05-05 18:56 50.12571 8.86777 4987 ft 328 kts 258°
2026-05-05 18:57 50.11848 8.83602 5004 ft 296 kts 245°
2026-05-05 18:57 50.11128 8.80775 5003 ft 260 kts 249°
2026-05-05 18:57 50.10646 8.78328 4980 ft 219 kts 263°
2026-05-05 18:57 50.11019 8.76232 4982 ft 191 kts 308°
2026-05-05 18:58 50.12162 8.75355 5005 ft 201 kts 356°
2026-05-05 18:58 50.13641 8.76101 5025 ft 247 kts 36°
2026-05-05 18:58 50.14913 8.77942 5005 ft 251 kts 44°
2026-05-05 18:58 50.16167 8.79833 5012 ft 251 kts 43°
2026-05-05 18:59 50.17244 8.81948 4993 ft 250 kts 70°
2026-05-05 18:59 50.17379 8.84577 4993 ft 244 kts 108°
2026-05-05 18:59 50.16506 8.86692 4945 ft 226 kts 147°
2026-05-05 18:59 50.15136 8.87362 4823 ft 197 kts 189°
2026-05-05 19:00 50.14014 8.86493 4678 ft 171 kts 223°
2026-05-05 19:00 50.13172 8.85316 4512 ft 156 kts 223°
2026-05-05 19:00 50.12378 8.84200 4198 ft 150 kts 223°
2026-05-05 19:00 50.11675 8.83019 4020 ft 149 kts 244°
2026-05-05 19:01 50.11348 8.81494 4009 ft 147 kts 250°
2026-05-05 19:01 50.11003 8.80063 3986 ft 135 kts 249°
2026-05-05 19:01 50.10675 8.78721 3989 ft 132 kts 249°
2026-05-05 19:01 50.10345 8.77364 3815 ft 134 kts 249°
2026-05-05 19:02 50.10017 8.76012 3614 ft 133 kts 249°
2026-05-05 19:02 50.09684 8.74631 3426 ft 138 kts 249°
2026-05-05 19:02 50.09348 8.73237 3221 ft 136 kts 249°
2026-05-05 19:02 50.09016 8.71858 3030 ft 136 kts 250°
2026-05-05 19:03 50.08683 8.70473 2829 ft 137 kts 249°
2026-05-05 19:03 50.08350 8.69091 2630 ft 135 kts 249°
2026-05-05 19:03 50.08022 8.67725 2440 ft 135 kts 250°
2026-05-05 19:03 50.07695 8.66365 2244 ft 136 kts 249°
2026-05-05 19:04 50.07365 8.64990 2052 ft 136 kts 249°
2026-05-05 19:04 50.07036 8.63619 1858 ft 136 kts 249°
2026-05-05 19:04 50.06706 8.62244 1665 ft 135 kts 249°
2026-05-05 19:04 50.06376 8.60868 1469 ft 136 kts 249°
2026-05-05 19:05 50.06045 8.59484 1268 ft 137 kts 249°
2026-05-05 19:05 50.05710 8.58086 1065 ft 139 kts 249°
2026-05-05 19:05 50.05374 8.56678 878 ft 138 kts 249°
2026-05-05 19:05 50.05049 8.55275 669 ft 138 kts 248°
2026-05-05 19:06 50.04709 8.53885 476 ft 136 kts 249°
2026-05-05 19:06 50.04391 8.52577 353 ft 121 kts 249°
2026-05-05 19:06 50.04144 8.51544 348 ft 80 kts 249°
2026-05-05 19:06 50.03967 8.50987 349 ft 34 kts 221°
2026-05-05 19:07 50.03884 8.50887 348 ft 0 kts 216°
2026-05-05 19:07 50.03882 8.50884 348 ft 2 kts 216°
2026-05-05 19:07 50.03842 8.50841 349 ft 11 kts 208°
2026-05-05 19:08 50.03797 8.50854 352 ft 7 kts 146°
2026-05-05 19:08 50.03778 8.50907 346 ft 5 kts 89°
2026-05-05 19:08 50.03791 8.50966 347 ft 8 kts 69°
2026-05-05 19:08 50.03818 8.51075 352 ft 14 kts 69°
2026-05-05 19:09 50.03859 8.51251 347 ft 20 kts 70°
2026-05-05 19:09 50.03913 8.51482 351 ft 23 kts 70°
2026-05-05 19:09 50.03968 8.51714 352 ft 23 kts 70°
2026-05-05 19:09 50.04022 8.51939 350 ft 22 kts 69°
2026-05-05 19:10 50.04076 8.52158 350 ft 21 kts 69°
2026-05-05 19:10 50.04127 8.52367 350 ft 21 kts 70°
2026-05-05 19:10 50.04176 8.52577 350 ft 20 kts 70°
2026-05-05 19:10 50.04223 8.52777 350 ft 19 kts 68°
2026-05-05 19:11 50.04271 8.52967 347 ft 19 kts 70°
2026-05-05 19:11 50.04317 8.53163 353 ft 20 kts 69°
2026-05-05 19:11 50.04372 8.53383 348 ft 23 kts 69°
2026-05-05 19:11 50.04405 8.53621 345 ft 22 kts 84°
2026-05-05 19:12 50.04420 8.53858 345 ft 22 kts 85°
2026-05-05 19:12 50.04433 8.54089 350 ft 21 kts 84°
2026-05-05 19:12 50.04449 8.54312 350 ft 20 kts 83°
2026-05-05 19:12 50.04446 8.54528 347 ft 20 kts 104°
2026-05-05 19:13 50.04377 8.54707 348 ft 19 kts 136°
2026-05-05 19:13 50.04344 8.54745 346 ft 0 kts 149°
2026-05-05 19:13 50.04328 8.54759 345 ft 10 kts 152°
2026-05-05 19:14 50.04208 8.54831 351 ft 23 kts 160°
2026-05-05 19:14 50.04060 8.54917 350 ft 22 kts 160°
2026-05-05 19:14 50.03934 8.54991 345 ft 9 kts 160°
2026-05-05 19:14 50.03921 8.54998 352 ft 0 kts 160°
2026-05-05 19:17 50.03897 8.55012 350 ft 9 kts 160°
2026-05-05 19:17 50.03851 8.55107 348 ft 15 kts 84°
2026-05-05 19:18 50.03890 8.55285 350 ft 20 kts 69°
2026-05-05 19:18 50.03947 8.55527 349 ft 27 kts 69°
2026-05-05 19:18 50.04020 8.55836 348 ft 33 kts 70°
2026-05-05 19:18 50.04106 8.56192 347 ft 38 kts 70°
2026-05-05 19:19 50.04203 8.56599 349 ft 42 kts 69°
2026-05-05 19:19 50.04304 8.57020 349 ft 41 kts 70°
2026-05-05 19:19 50.04400 8.57422 348 ft 38 kts 69°
2026-05-05 19:19 50.04491 8.57799 346 ft 36 kts 70°
2026-05-05 19:20 50.04570 8.58018 346 ft 15 kts 14°
2026-05-05 19:20 50.04670 8.57981 351 ft 15 kts 334°
2026-05-05 19:20 50.04698 8.57865 348 ft 12 kts 253°
2026-05-05 19:20 50.04670 8.57744 351 ft 12 kts 250°
2026-05-05 19:21 50.04642 8.57625 352 ft 12 kts 249°
2026-05-05 19:21 50.04614 8.57509 353 ft 11 kts 249°
2026-05-05 19:21 50.04587 8.57398 351 ft 11 kts 249°
2026-05-05 19:21 50.04561 8.57286 345 ft 11 kts 249°
2026-05-05 19:22 50.04534 8.57177 348 ft 11 kts 250°
2026-05-05 19:22 50.04509 8.57069 351 ft 11 kts 250°
2026-05-05 19:22 50.04487 8.56944 345 ft 13 kts 277°
2026-05-05 19:22 50.04563 8.56897 348 ft 13 kts
2026-05-05 19:23 50.04647 8.56931 347 ft 11 kts 24°
2026-05-05 19:23 50.04655 8.57003 350 ft 7 kts 99°
2026-05-05 19:23 50.04653 8.57058 345 ft 0 kts 89°